This is the latest recevied weather packets stored in our database for station/object OK1VCF-5. If no packets are shown the sender has not sent any weather packets the latest 10 day(s).
| Time | Temp. | Humidity | Pressure | Rain* | Wind** | Luminosity | Snow |
|---|---|---|---|---|---|---|---|
| 1777601361 | 0° C | 86% | 1034.6 hPa | - | - | - | - |
| 1777600460 | 0° C | 86% | 1034.4 hPa | - | - | - | - |
| 1777599560 | 0° C | 84% | 1034.5 hPa | - | - | - | - |
| 1777598694 | 0.56° C | 84% | 1034.4 hPa | - | - | - | - |
| 1777598658 | 0.56° C | 84% | 1034.4 hPa | - | - | - | - |
| 1777597756 | 0.56° C | 84% | 1034.4 hPa | - | - | - | - |
| 1777596857 | 1.11° C | 83% | 1034.4 hPa | - | - | - | - |
| 1777595957 | 1.11° C | 83% | 1034.2 hPa | - | - | - | - |
| 1777595055 | 1.11° C | 83% | 1034.4 hPa | - | - | - | - |
| 1777594156 | 1.11° C | 81% | 1034.4 hPa | - | - | - | - |
| 1777593255 | 1.11° C | 82% | 1034.2 hPa | - | - | - | - |
| 1777592353 | 2.22° C | 78% | 1034.3 hPa | - | - | - | - |
| 1777591452 | 2.22° C | 78% | 1034.4 hPa | - | - | - | - |
| 1777590551 | 2.22° C | 78% | 1034.3 hPa | - | - | - | - |
| 1777589651 | 2.22° C | 78% | 1034.4 hPa | - | - | - | - |
| 1777588748 | 2.22° C | 77% | 1034.4 hPa | - | - | - | - |
| 1777587849 | 2.78° C | 74% | 1034.4 hPa | - | - | - | - |
| 1777586949 | 2.78° C | 74% | 1034.3 hPa | - | - | - | - |
| 1777586048 | 2.78° C | 74% | 1034.2 hPa | - | - | - | - |
| 1777585145 | 3.33° C | 73% | 1034.2 hPa | - | - | - | - |
| 1777584247 | 3.33° C | 72% | 1034.3 hPa | - | - | - | - |
| 1777583345 | 3.89° C | 70% | 1034 hPa | - | - | - | - |
| 1777582445 | 4.44° C | 67% | 1033.9 hPa | - | - | - | - |
| 1777581546 | 4.44° C | 64% | 1033.9 hPa | - | - | - | - |
| 1777580643 | 5.56° C | 62% | 1034 hPa | - | - | - | - |
* Rain since midnight (hover to see other rain measurements)
** Current wind speed in m/s (hover to see current wind gust speed)